Location: Frydek-Mistek
(49.6830°N, 18.3330°E)
Time: 12:13:18
(UTC+01:00)

ISS - Visible Passes

Search period start: 10 December 2019 00:00
Search period end: 20 December 2019 00:00
Orbit: 411 x 421 km, 51.6° (Epoch: 10 December)

Date Brightness Start Highest point End Pass type
(mag) Time Alt. Az. Time Alt. Az. Time Alt. Az.
10 Dec -2.2 16:50:43 10° W 16:53:51 37° SSW 16:56:59 10° SE visible
11 Dec -0.5 17:40:16 10° WSW 17:41:36 12° SW 17:42:56 10° SSW visible
12 Dec -0.7 16:50:57 10° W 16:53:19 18° SW 16:55:41 10° S visible
